Weather in Uusikaupunki

Finland     60°48′06″N   21°25′19″E
temp.,
°C
wind,
m/s
gust,
m/s
humid.,
%
clouds,
%
prec.,
mm/h
press.,
hPa
HPBL,
m
17 april, sat
sat1700:00+6ene3106551 0.0 1031219
03:00+4ne397360 0.0 1031191
06:00+3ne397960 0.0 1031174
09:00+6ene49615 0.0 1031317
12:00+11ene574145 0.0 1031747
15:00+14ene45325 0.0 10311155
18:00+14ene353218 0.0 10301317
21:00+9ne39559 0.0 1030168
18 april, sun
sun1800:00+7ene38655 0.0 1031152
03:00+5ene37735 0.0 1032113
06:00+4ene37775 0.0 1031112
09:00+7ene36635 0.0 1032272
12:00+12e35452 0.0 1031869
15:00+14e23350 0.0 10301267
18:00+14ese13322 0.0 10301406
21:00+9se11555 0.0 103011
19 april, mon
mon1900:00+6se23685 0.0 103142
03:00+5se22690 0.0 103134
06:00+4e24742 0.0 103159
09:00+8e36612 0.0 1031282
12:00+12ese24435 0.0 10301020
15:00+13w22445 0.0 1030736
18:00+10nw34515 0.0 1029429
21:00+6wnw23695 0.0 102972
20 april, tue
tue2000:00+5w22755 0.0 102836
03:00+4e11735 0.0 102710
06:00+4ese22775 0.0 102615
09:00+8e24555 0.0 1025279
12:00+11ese23475 0.0 10231100
15:00+11w32449 0.0 1021819
18:00+9w23522 0.0 1020492
21:00+6sw226517 0.0 101856
21 april, wed
wed2100:00+4s237113 0.0 101759
03:00+3ese24685 0.0 101569
06:00+2ese23675 0.0 101345
09:00+6ese24515 0.0 1011289
12:00+10sse22445 0.0 10091077
15:00+9ssw335125 0.0 10081162
18:00+8wsw32585 0.0 1007509
21:00+5w11755 0.0 100727